Location: Brno
(49.2000°N, 16.6330°E)
Time: 17:58:53
(UTC+02:00)

RESURS DK-1 - Visible Passes

Search period start: 28 May 2015 00:00
Search period end: 07 June 2015 00:00
Orbit: 560 x 564 km, 69.9° (Epoch: 28 May)

Date Brightness Start Highest point End Pass type
(mag) Time Alt. Az. Time Alt. Az. Time Alt. Az.
28 May 4.6 01:22:03 10° W 01:25:17 21° NW 01:28:28 10° N visible
28 May 2.2 23:44:18 34° SSW 23:46:02 78° ESE 23:50:11 10° NNE visible
29 May 4.9 01:21:51 10° W 01:24:43 17° NW 01:27:29 10° N visible
29 May 4.3 22:06:54 12° ESE 22:07:43 12° ESE 22:09:35 10° ENE visible
29 May 2.4 23:42:48 23° SW 23:45:17 79° WNW 23:49:28 10° NNE visible
30 May 5.1 01:21:47 10° WNW 01:24:09 14° NW 01:26:26 10° N visible
30 May 4.0 22:05:16 14° SE 22:06:51 17° ESE 22:09:34 10° ENE visible
30 May 2.8 23:41:09 14° SW 23:44:34 60° WNW 23:48:41 10° NNE visible
31 May 5.3 01:21:55 10° WNW 01:23:38 12° NW 01:25:14 10° NNW visible
31 May 3.7 22:03:26 13° SSE 22:06:00 22° ESE 22:09:15 10° NE visible
31 May 3.4 23:39:53 10° SW 23:43:52 45° NW 23:47:54 10° NNE visible
01 Jun 5.7 01:22:51 10° NW 01:23:07 10° NNW 01:23:16 10° NNW visible
01 Jun 3.3 22:01:36 10° S 22:05:10 29° ESE 22:08:47 10° NE visible
01 Jun 3.9 23:39:23 10° WSW 23:43:13 35° NW 23:47:03 10° NNE visible
02 Jun 2.9 22:00:31 10° S 22:04:21 38° ESE 22:08:14 10° NE visible
02 Jun 4.4 23:38:56 10° WSW 23:42:34 28° NW 23:46:11 10° NNE visible
03 Jun 2.5 21:59:32 10° S 22:03:33 51° ESE 22:07:35 10° NE visible
03 Jun 4.8 23:38:35 10° W 23:41:58 23° NW 23:45:16 10° N visible
04 Jun 2.3 21:58:40 10° SSW 22:02:46 69° ESE 22:06:55 10° NE visible
04 Jun 5.2 23:38:21 10° W 23:41:22 19° NW 23:44:20 10° N visible
05 Jun 2.4 21:57:52 10° SSW 22:02:00 88° WNW 22:06:12 10° NNE visible
05 Jun 5.4 23:38:13 10° WNW 23:40:48 16° NW 23:43:18 10° N visible
06 Jun 2.8 21:57:09 10° SW 22:01:17 67° WNW 22:05:26 10° NNE visible
06 Jun 5.6 23:38:14 10° WNW 23:40:16 13° NW 23:42:11 10° N visible
